Time,TemperatureF,DewpointF,PressureIn,WindDirection,WindDirectionDegrees,WindSpeedMPH,WindSpeedGustMPH,Humidity,HourlyPrecipIn,Conditions,Clouds,dailyrainin,SoftwareType,DateUTC
2013-06-12 00:03:00,75.0,67.0,-100.00,NE,55,6.0,10.0,76,0.00,,,-99.99,,2013-06-12 05:03:00,
2013-06-12 00:12:00,75.0,67.0,-100.00,NNE,25,3.0,7.0,76,0.00,,,-99.99,,2013-06-12 05:12:00,
2013-06-12 00:22:00,74.0,67.0,-100.00,North,0,3.0,11.0,78,0.00,,,-99.99,,2013-06-12 05:22:00,
2013-06-12 00:32:00,73.0,67.0,-100.00,North,0,4.0,10.0,82,0.00,,,-99.99,,2013-06-12 05:32:00,
2013-06-12 00:42:00,73.0,67.0,-100.00,North,0,4.0,10.0,82,0.00,,,-99.99,,2013-06-12 05:42:00,
2013-06-12 00:52:00,72.0,68.0,-100.00,NE,35,6.0,12.0,85,0.00,,,-99.99,,2013-06-12 05:52:00,
2013-06-12 01:02:00,72.0,68.0,-100.00,NE,35,6.0,12.0,85,0.00,,,-99.99,,2013-06-12 06:02:00,
2013-06-12 01:12:00,72.0,67.0,-100.00,NE,55,4.0,9.0,85,0.00,,,-99.99,,2013-06-12 06:12:00,
2013-06-12 01:22:00,72.0,67.0,-100.00,ENE,60,6.0,12.0,85,0.00,,,-99.99,,2013-06-12 06:22:00,
2013-06-12 01:32:00,71.0,67.0,-100.00,ENE,60,9.0,14.0,87,0.00,,,-99.99,,2013-06-12 06:32:00,
2013-06-12 01:42:00,71.0,67.0,-100.00,ENE,60,9.0,14.0,87,0.00,,,-99.99,,2013-06-12 06:42:00,
2013-06-12 01:52:00,71.0,67.0,-100.00,ENE,65,7.0,17.0,87,0.00,,,-99.99,,2013-06-12 06:52:00,
2013-06-12 02:02:00,71.0,67.0,-100.00,ENE,65,7.0,17.0,87,0.00,,,-99.99,,2013-06-12 07:02:00,
2013-06-12 02:12:00,71.0,67.0,-100.00,ENE,60,9.0,16.0,87,0.00,,,-99.99,,2013-06-12 07:12:00,
2013-06-12 02:22:00,71.0,67.0,-100.00,NE,55,6.0,14.0,87,0.00,,,-99.99,,2013-06-12 07:22:00,
2013-06-12 02:33:00,71.0,67.0,-100.00,ENE,60,7.0,12.0,88,0.00,,,-99.99,,2013-06-12 07:33:00,
2013-06-12 02:43:00,71.0,67.0,-100.00,NE,50,3.0,13.0,88,0.00,,,-99.99,,2013-06-12 07:43:00,
2013-06-12 02:53:00,70.0,67.0,-100.00,North,0,6.0,12.0,89,3.10,,,-99.99,,2013-06-12 07:53:00,
2013-06-12 03:02:00,70.0,67.0,-100.00,East,85,14.0,17.0,91,0.07,,,-99.99,,2013-06-12 08:02:00,
2013-06-12 03:12:00,70.0,67.0,-100.00,East,80,6.0,14.0,92,0.07,,,-99.99,,2013-06-12 08:12:00,
2013-06-12 03:22:00,70.0,67.0,-100.00,East,80,6.0,14.0,92,0.07,,,-99.99,,2013-06-12 08:22:00,
2013-06-12 03:33:00,69.0,67.0,-100.00,North,10,4.0,10.0,92,0.16,,,-99.99,,2013-06-12 08:33:00,
2013-06-12 03:43:00,69.0,67.0,-100.00,ENE,70,15.0,21.0,92,1.11,,,-99.99,,2013-06-12 08:43:00,
2013-06-12 03:53:00,69.0,67.0,-100.00,East,80,5.0,17.0,92,0.01,,,-99.99,,2013-06-12 08:53:00,
2013-06-12 04:01:00,70.0,67.0,-100.00,East,90,11.0,16.0,92,0.00,,,-99.99,,2013-06-12 09:01:00,
2013-06-12 04:11:00,70.0,67.0,-100.00,East,100,12.0,18.0,92,0.00,,,-99.99,,2013-06-12 09:11:00,
2013-06-12 04:22:00,70.0,67.0,-100.00,ESE,115,11.0,17.0,92,0.00,,,-99.99,,2013-06-12 09:22:00,
2013-06-12 04:33:00,70.0,67.0,-100.00,SE,125,12.0,19.0,92,0.00,,,-99.99,,2013-06-12 09:33:00,
2013-06-12 04:42:00,70.0,68.0,-100.00,SE,135,15.0,19.0,92,0.00,,,-99.99,,2013-06-12 09:42:00,
2013-06-12 04:53:00,71.0,68.0,-100.00,ESE,110,13.0,19.0,92,0.00,,,-99.99,,2013-06-12 09:53:00,
2013-06-12 05:01:00,70.0,68.0,-100.00,ESE,105,11.0,18.0,92,0.00,,,-99.99,,2013-06-12 10:01:00,
2013-06-12 05:11:00,70.0,68.0,-100.00,ESE,110,13.0,20.0,92,0.00,,,-99.99,,2013-06-12 10:11:00,
2013-06-12 05:23:00,70.0,68.0,-100.00,ESE,115,12.0,21.0,92,0.00,,,-99.99,,2013-06-12 10:23:00,
2013-06-12 05:33:00,70.0,68.0,-100.00,ESE,110,17.0,23.0,92,0.00,,,-99.99,,2013-06-12 10:33:00,
2013-06-12 05:43:00,70.0,68.0,-100.00,ESE,110,20.0,28.0,92,0.00,,,-99.99,,2013-06-12 10:43:00,
2013-06-12 05:53:00,70.0,68.0,-100.00,SE,130,27.0,34.0,92,0.00,,,-99.99,,2013-06-12 10:53:00,
2013-06-12 06:02:00,70.0,68.0,-100.00,SE,125,20.0,30.0,92,0.00,,,-99.99,,2013-06-12 11:02:00,
2013-06-12 06:12:00,70.0,68.0,-100.00,SE,125,14.0,30.0,92,0.00,,,-99.99,,2013-06-12 11:12:00,
2013-06-12 06:24:00,70.0,68.0,-100.00,ESE,110,7.0,22.0,91,0.00,,,-99.99,,2013-06-12 11:24:00,
2013-06-12 06:33:00,70.0,68.0,-100.00,East,95,4.0,12.0,91,0.00,,,-99.99,,2013-06-12 11:33:00,
2013-06-12 06:43:00,70.0,68.0,-100.00,ESE,105,6.0,12.0,91,0.00,,,-99.99,,2013-06-12 11:43:00,
2013-06-12 06:53:00,70.0,68.0,-100.00,ENE,65,5.0,10.0,91,0.00,,,-99.99,,2013-06-12 11:53:00,
2013-06-12 07:01:00,70.0,67.0,-100.00,NNE,25,1.0,6.0,91,0.00,,,-99.99,,2013-06-12 12:01:00,
2013-06-12 07:11:00,70.0,67.0,-100.00,North,0,3.0,4.0,91,0.00,,,-99.99,,2013-06-12 12:11:00,
2013-06-12 07:23:00,70.0,67.0,-100.00,NNE,20,1.0,3.0,91,0.00,,,-99.99,,2013-06-12 12:23:00,
2013-06-12 07:33:00,71.0,68.0,-100.00,North,10,2.0,3.0,91,0.00,,,-99.99,,2013-06-12 12:33:00,
2013-06-12 07:42:00,71.0,68.0,-100.00,NNW,340,6.0,6.0,91,0.00,,,-99.99,,2013-06-12 12:42:00,
2013-06-12 07:53:00,71.0,69.0,-100.00,NNW,335,5.0,6.0,91,0.00,,,-99.99,,2013-06-12 12:53:00,
2013-06-12 08:01:00,72.0,69.0,-100.00,NNW,335,4.0,5.0,91,0.00,,,-99.99,,2013-06-12 13:01:00,
2013-06-12 08:12:00,72.0,69.0,-100.00,NNW,340,5.0,6.0,89,0.00,,,-99.99,,2013-06-12 13:12:00,
2013-06-12 08:22:00,73.0,70.0,-100.00,NNW,345,2.0,6.0,89,0.00,,,-99.99,,2013-06-12 13:22:00,
2013-06-12 08:32:00,73.0,70.0,-100.00,NNW,345,2.0,6.0,89,0.00,,,-99.99,,2013-06-12 13:32:00,
2013-06-12 08:43:00,74.0,69.0,-100.00,NE,40,2.0,4.0,84,0.00,,,-99.99,,2013-06-12 13:43:00,
2013-06-12 08:53:00,74.0,68.0,-100.00,ENE,65,3.0,4.0,82,0.00,,,-99.99,,2013-06-12 13:53:00,
2013-06-12 09:02:00,74.0,69.0,-100.00,NNW,335,2.0,4.0,82,0.00,,,-99.99,,2013-06-12 14:02:00,
2013-06-12 09:11:00,75.0,69.0,-100.00,ENE,75,3.0,5.0,80,0.00,,,-99.99,,2013-06-12 14:11:00,
2013-06-12 09:23:00,75.0,68.0,-100.00,ENE,65,1.0,6.0,80,0.00,,,-99.99,,2013-06-12 14:23:00,
2013-06-12 09:33:00,75.0,68.0,-100.00,ENE,70,2.0,4.0,79,0.00,,,-99.99,,2013-06-12 14:33:00,
2013-06-12 09:43:00,75.0,68.0,-100.00,East,80,1.0,5.0,79,0.00,,,-99.99,,2013-06-12 14:43:00,
2013-06-12 09:53:00,76.0,69.0,-100.00,ENE,60,2.0,3.0,78,0.00,,,-99.99,,2013-06-12 14:53:00,
2013-06-12 10:01:00,76.0,68.0,-100.00,ENE,70,4.0,6.0,76,0.00,,,-99.99,,2013-06-12 15:01:00,
2013-06-12 10:12:00,76.0,67.0,-100.00,NNW,330,2.0,7.0,73,0.00,,,-99.99,,2013-06-12 15:12:00,
2013-06-12 10:23:00,76.0,67.0,-100.00,NNW,340,4.0,6.0,73,0.00,,,-99.99,,2013-06-12 15:23:00,
2013-06-12 10:33:00,75.0,67.0,-100.00,North,0,2.0,7.0,76,0.00,,,-99.99,,2013-06-12 15:33:00,
2013-06-12 10:43:00,71.0,65.0,-100.00,North,0,9.0,16.0,78,0.00,,,-99.99,,2013-06-12 15:43:00,
2013-06-12 10:52:00,67.0,62.0,-100.00,North,5,6.0,16.0,82,0.00,,,-99.99,,2013-06-12 15:52:00,
2013-06-12 11:01:00,66.0,61.0,-100.00,NNE,30,7.0,17.0,85,0.00,,,-99.99,,2013-06-12 16:01:00,
2013-06-12 11:11:00,66.0,62.0,-100.00,NE,35,7.0,16.0,86,0.00,,,-99.99,,2013-06-12 16:11:00,
2013-06-12 11:22:00,66.0,62.0,-100.00,North,10,6.0,16.0,87,0.00,,,-99.99,,2013-06-12 16:22:00,
2013-06-12 11:32:00,66.0,62.0,-100.00,NNE,30,5.0,12.0,87,0.00,,,-99.99,,2013-06-12 16:32:00,
2013-06-12 11:43:00,67.0,63.0,-100.00,NNE,15,6.0,17.0,87,0.00,,,-99.99,,2013-06-12 16:43:00,
2013-06-12 11:52:00,67.0,63.0,-100.00,NNE,15,6.0,17.0,87,0.00,,,-99.99,,2013-06-12 16:52:00,
2013-06-12 12:01:00,68.0,63.0,-100.00,NNE,25,6.0,14.0,86,0.00,,,-99.99,,2013-06-12 17:01:00,
2013-06-12 12:11:00,68.0,64.0,-100.00,NE,40,6.0,12.0,86,0.00,,,-99.99,,2013-06-12 17:11:00,
2013-06-12 12:22:00,69.0,64.0,-100.00,NNE,30,7.0,12.0,86,0.00,,,-99.99,,2013-06-12 17:22:00,
2013-06-12 12:33:00,69.0,65.0,-100.00,NE,35,4.0,11.0,86,0.00,,,-99.99,,2013-06-12 17:33:00,
2013-06-12 12:42:00,69.0,65.0,-100.00,NNW,345,3.0,7.0,86,0.00,,,-99.99,,2013-06-12 17:42:00,
2013-06-12 12:52:00,69.0,65.0,-100.00,North,350,4.0,9.0,86,0.00,,,-99.99,,2013-06-12 17:52:00,
2013-06-12 13:02:00,69.0,65.0,-100.00,NNW,340,4.0,8.0,86,0.00,,,-99.99,,2013-06-12 18:02:00,
2013-06-12 13:12:00,71.0,66.0,-100.00,NNW,330,4.0,9.0,85,0.00,,,-99.99,,2013-06-12 18:12:00,
2013-06-12 13:22:00,70.0,65.0,-100.00,NNW,335,7.0,10.0,84,0.00,,,-99.99,,2013-06-12 18:22:00,
2013-06-12 13:32:00,70.0,65.0,-100.00,North,0,6.0,10.0,85,0.00,,,-99.99,,2013-06-12 18:32:00,
2013-06-12 13:43:00,70.0,66.0,-100.00,NW,325,6.0,9.0,85,0.00,,,-99.99,,2013-06-12 18:43:00,
2013-06-12 13:53:00,70.0,66.0,-100.00,NNW,335,7.0,12.0,85,0.00,,,-99.99,,2013-06-12 18:53:00,
2013-06-12 14:01:00,70.0,65.0,-100.00,NW,320,7.0,11.0,85,0.00,,,-99.99,,2013-06-12 19:01:00,
2013-06-12 14:11:00,69.0,65.0,-100.00,NW,315,8.0,11.0,86,0.00,,,-99.99,,2013-06-12 19:11:00,
2013-06-12 14:22:00,69.0,65.0,-100.00,NW,305,11.0,14.0,86,0.00,,,-99.99,,2013-06-12 19:22:00,
2013-06-12 14:32:00,69.0,65.0,-100.00,NW,325,7.0,12.0,87,0.00,,,-99.99,,2013-06-12 19:32:00,
2013-06-12 14:42:00,69.0,65.0,-100.00,NNW,330,7.0,11.0,87,0.00,,,-99.99,,2013-06-12 19:42:00,
2013-06-12 14:52:00,69.0,66.0,-100.00,NW,325,9.0,12.0,88,0.00,,,-99.99,,2013-06-12 19:52:00,
2013-06-12 15:01:00,69.0,66.0,-100.00,NW,325,9.0,12.0,88,0.00,,,-99.99,,2013-06-12 20:01:00,
2013-06-12 15:11:00,69.0,66.0,-100.00,NW,325,9.0,12.0,88,0.00,,,-99.99,,2013-06-12 20:11:00,
2013-06-12 15:21:00,69.0,66.0,-100.00,NW,325,9.0,12.0,88,0.00,,,-99.99,,2013-06-12 20:21:00,
2013-06-12 15:32:00,70.0,66.0,-100.00,WNW,295,10.0,12.0,86,0.00,,,-99.99,,2013-06-12 20:32:00,
2013-06-12 15:43:00,70.0,66.0,-100.00,WNW,300,11.0,17.0,86,0.00,,,-99.99,,2013-06-12 20:43:00,
2013-06-12 15:54:00,69.0,64.0,-100.00,WNW,300,17.0,24.0,85,0.00,,,-99.99,,2013-06-12 20:54:00,
2013-06-12 16:01:00,69.0,64.0,-100.00,WNW,295,19.0,28.0,84,0.00,,,-99.99,,2013-06-12 21:01:00,
2013-06-12 16:11:00,69.0,64.0,-100.00,NW,310,14.0,24.0,83,0.00,,,-99.99,,2013-06-12 21:11:00,
2013-06-12 16:21:00,67.0,63.0,-100.00,NW,325,13.0,21.0,85,0.00,,,-99.99,,2013-06-12 21:21:00,
2013-06-12 16:33:00,67.0,63.0,-100.00,NW,325,12.0,24.0,85,0.00,,,-99.99,,2013-06-12 21:33:00,
2013-06-12 16:43:00,66.0,61.0,-100.00,NNW,335,15.0,24.0,85,0.00,,,-99.99,,2013-06-12 21:43:00,
2013-06-12 16:52:00,65.0,61.0,-100.00,NNW,330,13.0,27.0,85,0.00,,,-99.99,,2013-06-12 21:52:00,
2013-06-12 17:01:00,64.0,60.0,-100.00,NNW,330,14.0,29.0,85,0.00,,,-99.99,,2013-06-12 22:01:00,
2013-06-12 17:11:00,63.0,58.0,-100.00,NNW,335,15.0,24.0,83,0.00,,,-99.99,,2013-06-12 22:11:00,
2013-06-12 17:22:00,64.0,58.0,-100.00,NW,325,17.0,26.0,80,0.00,,,-99.99,,2013-06-12 22:22:00,
2013-06-12 17:32:00,63.0,57.0,-100.00,NNW,330,14.0,24.0,78,0.00,,,-99.99,,2013-06-12 22:32:00,
2013-06-12 17:43:00,63.0,56.0,-100.00,NW,325,17.0,27.0,78,0.00,,,-99.99,,2013-06-12 22:43:00,
2013-06-12 17:52:00,63.0,56.0,-100.00,NW,320,16.0,30.0,78,0.00,,,-99.99,,2013-06-12 22:52:00,
2013-06-12 18:01:00,63.0,56.0,-100.00,NNW,340,14.0,30.0,78,0.00,,,-99.99,,2013-06-12 23:01:00,
2013-06-12 18:12:00,63.0,56.0,-100.00,NNW,335,12.0,29.0,77,0.00,,,-99.99,,2013-06-12 23:12:00,
2013-06-12 18:22:00,63.0,55.0,-100.00,North,0,12.0,34.0,76,0.00,,,-99.99,,2013-06-12 23:22:00,
2013-06-12 18:32:00,63.0,55.0,-100.00,NNW,330,12.0,26.0,77,0.00,,,-99.99,,2013-06-12 23:32:00,
2013-06-12 18:42:00,62.0,55.0,-100.00,NNW,330,15.0,30.0,77,0.00,,,-99.99,,2013-06-12 23:42:00,
2013-06-12 18:52:00,62.0,54.0,-100.00,NNW,335,15.0,26.0,76,0.00,,,-99.99,,2013-06-12 23:52:00,
2013-06-12 19:01:00,62.0,54.0,-100.00,NNW,340,16.0,28.0,76,0.00,,,-99.99,,2013-06-13 00:01:00,
2013-06-12 19:11:00,61.0,54.0,-100.00,NNW,335,12.0,24.0,75,0.00,,,-99.99,,2013-06-13 00:11:00,
2013-06-12 19:22:00,62.0,53.0,-100.00,NNW,345,14.0,25.0,74,0.00,,,-99.99,,2013-06-13 00:22:00,
2013-06-12 19:32:00,62.0,53.0,-100.00,NNW,345,14.0,24.0,74,0.00,,,-99.99,,2013-06-13 00:32:00,
2013-06-12 19:42:00,62.0,53.0,-100.00,North,0,9.0,21.0,72,0.00,,,-99.99,,2013-06-13 00:42:00,
2013-06-12 19:52:00,62.0,53.0,-100.00,North,0,13.0,24.0,70,0.00,,,-99.99,,2013-06-13 00:52:00,
2013-06-12 20:01:00,62.0,53.0,-100.00,NNW,335,12.0,19.0,70,0.00,,,-99.99,,2013-06-13 01:01:00,
2013-06-12 20:12:00,62.0,53.0,-100.00,North,355,9.0,17.0,70,0.00,,,-99.99,,2013-06-13 01:12:00,
2013-06-12 20:22:00,63.0,53.0,-100.00,NNW,330,10.0,21.0,69,0.00,,,-99.99,,2013-06-13 01:22:00,
2013-06-12 20:32:00,63.0,53.0,-100.00,NW,325,9.0,17.0,69,0.00,,,-99.99,,2013-06-13 01:32:00,
2013-06-12 20:43:00,62.0,53.0,-100.00,NW,315,9.0,17.0,71,0.00,,,-99.99,,2013-06-13 01:43:00,
2013-06-12 20:53:00,62.0,53.0,-100.00,NNW,335,14.0,22.0,71,0.00,,,-99.99,,2013-06-13 01:53:00,
2013-06-12 21:01:00,63.0,53.0,-100.00,NW,325,13.0,23.0,68,0.00,,,-99.99,,2013-06-13 02:01:00,
2013-06-12 21:12:00,63.0,53.0,-100.00,NW,325,11.0,19.0,69,0.00,,,-99.99,,2013-06-13 02:12:00,
2013-06-12 21:22:00,63.0,53.0,-100.00,NNW,340,11.0,19.0,69,0.00,,,-99.99,,2013-06-13 02:22:00,
2013-06-12 21:33:00,63.0,53.0,-100.00,NNW,345,11.0,17.0,69,0.00,,,-99.99,,2013-06-13 02:33:00,
2013-06-12 21:42:00,63.0,53.0,-100.00,NNW,330,11.0,21.0,69,0.00,,,-99.99,,2013-06-13 02:42:00,
2013-06-12 21:52:00,63.0,53.0,-100.00,NW,325,9.0,19.0,68,0.00,,,-99.99,,2013-06-13 02:52:00,
2013-06-12 22:01:00,63.0,53.0,-100.00,NW,325,10.0,15.0,68,0.00,,,-99.99,,2013-06-13 03:01:00,
2013-06-12 22:11:00,63.0,52.0,-100.00,NW,320,9.0,14.0,67,0.00,,,-99.99,,2013-06-13 03:11:00,
2013-06-12 22:22:00,63.0,52.0,-100.00,NW,325,9.0,15.0,66,0.00,,,-99.99,,2013-06-13 03:22:00,
2013-06-12 22:33:00,63.0,51.0,-100.00,NW,325,9.0,12.0,64,0.00,,,-99.99,,2013-06-13 03:33:00,
2013-06-12 22:42:00,64.0,51.0,-100.00,NNW,330,9.0,15.0,64,0.00,,,-99.99,,2013-06-13 03:42:00,
2013-06-12 22:52:00,64.0,52.0,-100.00,NNW,330,9.0,18.0,65,0.00,,,-99.99,,2013-06-13 03:52:00,
2013-06-12 23:01:00,63.0,53.0,-100.00,NNW,340,9.0,16.0,68,0.00,,,-99.99,,2013-06-13 04:01:00,
2013-06-12 23:11:00,63.0,54.0,-100.00,NW,325,11.0,19.0,70,0.00,,,-99.99,,2013-06-13 04:11:00,
2013-06-12 23:22:00,64.0,54.0,-100.00,NW,325,10.0,16.0,70,0.00,,,-99.99,,2013-06-13 04:22:00,
2013-06-12 23:32:00,64.0,54.0,-100.00,NNW,330,11.0,19.0,70,0.00,,,-99.99,,2013-06-13 04:32:00,
2013-06-12 23:43:00,64.0,53.0,-100.00,NNW,335,10.0,21.0,66,0.00,,,-99.99,,2013-06-13 04:43:00,
2013-06-12 23:53:00,64.0,53.0,-100.00,NNW,330,11.0,17.0,66,0.00,,,-99.99,,2013-06-13 04:53:00,